TimeCST,TemperatureF,Dew PointF,Humidity,Sea Level PressureIn,VisibilityMPH,Wind Direction,Wind SpeedMPH,Gust SpeedMPH,PrecipitationIn,Events,Conditions,WindDirDegrees,DateUTC
12:15 AM,26.6,15.8,64,29.76,10.0,SSE,3.5,-,N/A,,Overcast,160,2011-12-29 06:15:00
12:35 AM,26.6,15.8,64,29.74,10.0,South,5.8,-,N/A,,Overcast,170,2011-12-29 06:35:00
12:55 AM,26.6,15.8,64,29.73,10.0,South,5.8,-,N/A,,Overcast,170,2011-12-29 06:55:00
1:15 AM,26.6,17.6,69,29.72,10.0,South,4.6,-,N/A,,Overcast,180,2011-12-29 07:15:00
1:35 AM,26.6,17.6,69,29.71,10.0,South,5.8,-,N/A,,Overcast,180,2011-12-29 07:35:00
1:55 AM,26.6,17.6,69,29.70,10.0,South,5.8,-,N/A,,Overcast,180,2011-12-29 07:55:00
2:15 AM,28.4,17.6,64,29.70,10.0,South,6.9,-,N/A,,Overcast,180,2011-12-29 08:15:00
2:35 AM,28.4,17.6,64,29.68,10.0,South,5.8,-,N/A,,Overcast,180,2011-12-29 08:35:00
2:55 AM,26.6,17.6,69,29.67,10.0,SSE,3.5,-,N/A,,Overcast,160,2011-12-29 08:55:00
3:35 AM,26.6,19.4,74,29.64,10.0,South,4.6,-,N/A,,Overcast,170,2011-12-29 09:35:00
3:55 AM,26.6,19.4,74,29.62,10.0,SSE,4.6,-,N/A,,Scattered Clouds,160,2011-12-29 09:55:00
4:15 AM,26.6,21.2,80,29.61,10.0,SSE,4.6,-,N/A,,Mostly Cloudy,150,2011-12-29 10:15:00
4:35 AM,24.8,21.2,86,29.61,10.0,Calm,Calm,-,N/A,,Mostly Cloudy,0,2011-12-29 10:35:00
5:15 AM,26.6,24.8,93,29.59,10.0,South,4.6,-,N/A,,Overcast,180,2011-12-29 11:15:00
5:35 AM,28.4,23.0,80,29.59,10.0,South,4.6,-,N/A,,Overcast,170,2011-12-29 11:35:00
5:55 AM,28.4,24.8,86,29.58,10.0,SSW,5.8,-,N/A,,Overcast,200,2011-12-29 11:55:00
6:15 AM,28.4,24.8,86,29.57,10.0,SSW,5.8,-,N/A,,Overcast,200,2011-12-29 12:15:00
6:35 AM,28.4,24.8,86,29.57,10.0,SSW,4.6,-,N/A,,Overcast,200,2011-12-29 12:35:00
6:55 AM,28.4,24.8,86,29.57,9.0,SSW,3.5,-,N/A,,Overcast,200,2011-12-29 12:55:00
7:55 AM,28.4,24.8,86,29.55,5.0,Calm,Calm,-,N/A,,Mostly Cloudy,0,2011-12-29 13:55:00
8:15 AM,28.4,26.6,93,29.55,1.8,ENE,4.6,-,N/A,,Overcast,60,2011-12-29 14:15:00
8:35 AM,28.4,26.6,93,29.55,1.0,ENE,3.5,-,N/A,,Overcast,60,2011-12-29 14:35:00
8:55 AM,28.4,28.4,100,29.55,1.2,Calm,Calm,-,N/A,,Overcast,0,2011-12-29 14:55:00
9:15 AM,30.2,28.4,93,29.55,0.8,NE,5.8,-,N/A,,Overcast,50,2011-12-29 15:15:00
9:35 AM,30.2,28.4,93,29.55,1.0,ENE,3.5,-,N/A,,Overcast,70,2011-12-29 15:35:00
9:55 AM,30.2,30.2,100,29.54,1.2,East,4.6,-,N/A,,Overcast,90,2011-12-29 15:55:00
10:15 AM,32.0,30.2,93,29.53,1.0,East,8.1,-,N/A,,Overcast,100,2011-12-29 16:15:00
10:35 AM,32.0,30.2,93,29.53,0.8,East,3.5,-,N/A,,Overcast,80,2011-12-29 16:35:00
11:55 AM,33.8,32.0,93,29.49,1.0,East,3.5,-,N/A,,Overcast,80,2011-12-29 17:55:00
12:15 PM,33.8,32.0,93,29.49,1.0,ESE,3.5,-,0.01,,Overcast,110,2011-12-29 18:15:00
12:35 PM,33.8,32.0,93,29.48,1.2,ESE,5.8,-,0.03,,Overcast,120,2011-12-29 18:35:00
12:55 PM,33.8,32.0,93,29.48,1.0,ESE,5.8,-,0.04,,Overcast,110,2011-12-29 18:55:00
1:15 PM,33.8,33.8,100,29.48,1.0,ESE,6.9,-,0.01,,Overcast,120,2011-12-29 19:15:00
1:35 PM,33.8,33.8,100,29.49,1.0,ESE,5.8,-,0.01,,Overcast,120,2011-12-29 19:35:00
1:55 PM,33.8,33.8,100,29.50,0.8,Calm,Calm,-,0.02,,Overcast,0,2011-12-29 19:55:00
2:15 PM,33.8,33.8,100,29.50,0.5,ESE,4.6,-,0.01,,Overcast,120,2011-12-29 20:15:00
2:35 PM,33.8,32.0,93,29.51,0.5,Calm,Calm,-,0.01,,Overcast,0,2011-12-29 20:35:00
3:15 PM,33.8,33.8,100,29.53,0.8,NNE,3.5,-,N/A,,Overcast,30,2011-12-29 21:15:00
3:55 PM,33.8,33.8,100,29.54,0.8,NNW,5.8,-,N/A,,Overcast,340,2011-12-29 21:55:00
4:15 PM,33.8,32.0,93,29.55,0.8,NNW,5.8,-,N/A,,Overcast,340,2011-12-29 22:15:00
4:55 PM,32.0,30.2,93,29.57,1.8,NNW,5.8,-,0.01,,Overcast,340,2011-12-29 22:55:00
5:15 PM,32.0,30.2,93,29.58,2.0,North,6.9,-,N/A,,Overcast,350,2011-12-29 23:15:00
5:35 PM,32.0,30.2,93,29.58,2.5,NNW,5.8,-,N/A,,Overcast,340,2011-12-29 23:35:00
5:55 PM,32.0,32.0,100,29.59,2.5,NNW,6.9,-,N/A,,Overcast,330,2011-12-29 23:55:00
6:15 PM,32.0,32.0,100,29.60,3.0,NNW,9.2,-,N/A,,Overcast,330,2011-12-30 00:15:00
6:35 PM,30.2,30.2,100,29.61,4.0,NNW,4.6,-,N/A,,Overcast,330,2011-12-30 00:35:00
6:55 PM,30.2,30.2,100,29.62,4.0,NNW,6.9,-,N/A,,Overcast,330,2011-12-30 00:55:00
7:15 PM,30.2,30.2,100,29.63,4.0,NNW,6.9,-,N/A,,Overcast,330,2011-12-30 01:15:00
7:35 PM,30.2,28.4,93,29.63,5.0,NNW,8.1,-,N/A,,Overcast,340,2011-12-30 01:35:00
8:35 PM,30.2,26.6,86,29.64,7.0,North,13.8,17.3,N/A,,Overcast,360,2011-12-30 02:35:00
8:55 PM,30.2,28.4,93,29.65,8.0,NNW,11.5,-,N/A,,Overcast,340,2011-12-30 02:55:00
9:35 PM,30.2,26.6,86,29.68,7.0,NW,5.8,-,N/A,,Overcast,320,2011-12-30 03:35:00
9:55 PM,30.2,26.6,86,29.67,8.0,NNW,9.2,-,N/A,,Overcast,340,2011-12-30 03:55:00
10:15 PM,30.2,26.6,86,29.67,8.0,NW,3.5,-,N/A,,Overcast,320,2011-12-30 04:15:00
10:35 PM,30.2,26.6,86,29.67,8.0,NW,3.5,-,N/A,,Overcast,320,2011-12-30 04:35:00
10:55 PM,30.2,26.6,86,29.68,7.0,WNW,3.5,-,N/A,,Overcast,300,2011-12-30 04:55:00
11:15 PM,28.4,26.6,93,29.68,8.0,NW,4.6,-,N/A,,Overcast,310,2011-12-30 05:15:00
11:35 PM,28.4,26.6,93,29.68,8.0,NW,6.9,-,N/A,,Overcast,310,2011-12-30 05:35:00